Regional Weather Roundup
Issued by NWS

Home | Current Version | Previous Version | Graphics & Text | Print | Product List | Glossary On
Versions: 1 2 3 4 5 6 7 8 9 10 11 12 13 14 15 16 17 18 19 20 21 22 23 24 25 26 27 28 29 30 31 32 33 34 35 36 37 38 39 40 41 42 43 44 45 46 47 48 49 50
000
ASUS43 KMPX 300310
RWRMN
WEATHER ROUNDUP FOR MINNESOTA
NATIONAL WEATHER SERVICE TWIN CITIES/CHANHASSEN MN
1000 PM CDT MON JUN 29 2015


NOTE: "FAIR" INDICATES FEW OR NO CLOUDS BELOW 12,000 FEET WITH NO
SIGNIFICANT WEATHER AND/OR OBSTRUCTIONS TO VISIBILITY. N/A MEANS
CURRENT SKY AND/OR WEATHER CONDITIONS ARE NOT AVAILABLE.

MNZ060>063-068>070-300400-
   Twin Cities Metro

CITY           SKY/WX    TMP DP  RH WIND       PRES   REMARKS
TWIN CITIES    MOCLDY    68  61  78 CALM      29.82R
ST PAUL        PTCLDY    63  61  93 E3        29.82R
CRYSTAL        MOCLDY    67  63  87 CALM      29.81R FOG
BLAINE         PTCLDY    66  64  94 CALM      29.82R FOG
LAKEVILLE      MOCLDY    64  61  88 S2        29.82R
EDEN PRAIRIE   PTCLDY    65  62  90 SW3       29.81S FOG
SOUTH ST PAUL  PTCLDY    64  62  93 CALM      29.82R
LAKE ELMO      FAIR      61  61 100 CALM      29.83R
$$
MNZ001>005-007-008-013>017-022>024-027-028-300400-
   Northwest Minnesota

CITY           SKY/WX    TMP DP  RH WIND       PRES   REMARKS
BEMIDJI        CLEAR     65  57  77 N5        29.91R
HALLOCK        CLEAR     63  57  82 N6        29.91R
ROSEAU         CLEAR     64  57  77 CALM      29.92R
WARROAD        CLEAR     63  61  94 CALM      29.92R
THIEF RVR FALL CLEAR     68  61  77 N7        29.92R
CROOKSTON      CLEAR     64  61  88 N7        29.91R
FOSSTON        CLEAR     63  57  82 NE6       29.92R
DETROIT LAKES  CLEAR     68  63  83 NW8       29.91R
MOORHEAD       CLEAR     64  63  94 N5        29.90R
PARK RAPIDS    CLEAR     70  58  65 N8        29.88R
MAHNOMEN       FAIR      67  61  81 N7        29.90R
$$
MNZ006-009>011-018-025>026-300400-
   North Central Minnesota

CITY           SKY/WX    TMP DP  RH WIND       PRES   REMARKS
BAUDETTE       CLEAR     63  55  75 NW5       29.90R
FLAG ISLAND    CLEAR     70  57  64 NE8       29.91R
INTL FALLS     CLEAR     66  56  70 NE7       29.89R
WASKISH        CLEAR     64  55  72 CALM      29.90R
BIG FORK       CLEAR     59  55  88 CALM      29.90R
LONGVILLE      CLEAR     68  59  73 NE6       29.88R
GRAND RAPIDS   CLEAR     66  55  68 N7        29.88R
CRANE LAKE     CLOUDY    64  59  82 CALM      29.88R
ORR            CLEAR     59  55  88 CALM      29.85R
COOK           CLEAR     59  55  88 CALM      29.88R
WALKER         FAIR      67  58  72 N3        29.89R
$$
MNZ012-019>021-037-300400-
   Northeast Minnesota

CITY           SKY/WX    TMP DP  RH WIND       PRES   REMARKS
DULUTH         CLEAR     66  57  72 N6        29.84R
ELY            CLEAR     61  55  82 CALM      29.86R
HIBBING        CLEAR     63  56  78 NW7       29.87R
EVELETH        CLEAR     63  54  72 N6        29.88R
DULUTH HARBOR  CLEAR     64  63  94 NE7       29.83R
TWO HARBORS    CLEAR     66  61  82 VRB3      29.82R
GRAND MARAIS     N/A     54  52  93 CALM      29.82R
G MARAIS ARPRT MOCLDY    57  54  88 N7        29.86R
$$
MNZ029>031-032-039>041-046>048-054>057-064-300400-
   West Central Minnesota

CITY           SKY/WX    TMP DP  RH WIND       PRES   REMARKS
FERGUS FALLS   CLEAR     68  64  88 N7        29.89R
WHEATON        CLEAR     64  63  94 NW3       29.91R
MORRIS         CLEAR     68  64  88 NW9       29.88R
ALEXANDRIA     CLEAR     69  63  81 NW7       29.89R
ELBOW LAKE     FAIR      69  64  85 NW9       29.89R
WADENA         CLEAR     66  63  88 NW5       29.87R
GLENWOOD       CLEAR     68  64  88 NW7       29.89R
APPLETON       CLEAR     70  63  78 N9        29.88R
BENSON         CLEAR     68  63  83 N6        29.88R
ORTONVILLE     CLEAR     70  63  78 N7        29.89R
MADISON        CLEAR     70  63  78 N7        29.89R
WILLMAR        FAIR      70  64  83 NW8       29.88R
$$
MNZ033>034-036-042>043-049>051-058-059-300400-
   Central Minnesota

CITY           SKY/WX    TMP DP  RH WIND       PRES   REMARKS
ST CLOUD       CLEAR     65  63  93 CALM      29.83R FOG
SAUK CENTRE    FAIR      69  64  82 NW7       29.87R
PAYNESVILLE    CLEAR     65  63  93 W5        29.86R
AITKIN         CLEAR     66  57  72 N6        29.84R
PINE RIVER     PTCLDY    68  57  68 N5        29.90R
BRAINERD       CLEAR     71  56  58 N7        29.86R
STAPLES        PTCLDY    68  57  68 CALM      29.87R
LONG PRAIRIE   FAIR      68  61  77 NW3       29.87R
LITTLE FALLS   CLEAR     68  55  64 CALM      29.85R
LITCHFIELD     CLEAR     72  68  88 NW6       29.85R
BUFFALO        PTCLDY    70  61  73 CALM      29.84R
MAPLE LAKE     PTCLDY    70  64  80 CALM      29.84R
$$
MNZ037-044-045-052-053-300400-
   East Central Minnesota

CITY           SKY/WX    TMP DP  RH WIND       PRES   REMARKS
PRINCETON      PTCLDY    66  63  88 CALM      29.83R
MORA           LGT RAIN  64  63  94 CALM      29.84R
CAMBRIDGE      CLEAR     66  57  72 CALM      29.81R
MOOSE LAKE     MOCLDY    64  64 100 NE3       29.82R
HINCKLEY       FAIR      63  63 100 CALM      29.82R
CLOQUET        CLEAR     66  55  68 N5        29.84S
MCGREGOR       PTCLDY    70  59  68 N8        29.86R
$$
MNZ071>073-080-081-089-090-097-098-300400-
   Southwest Minnesota

CITY           SKY/WX    TMP DP  RH WIND       PRES   REMARKS
MONTEVIDEO     CLEAR     70  63  78 N8        29.88R
GRANITE FALLS  CLOUDY    69  64  83 NW5       29.89R
CANBY          CLEAR     69  63  82 NW6       29.90R
MARSHALL       CLEAR     70  61  73 NW7       29.88R
REDWOOD FALLS  PTCLDY    72  63  73 NW9       29.85R
OLIVIA         CLEAR     68  63  83 NW5       29.86R
PIPESTONE      CLEAR     73  64  73 NW3       29.91R
WINDOM         CLEAR     70  63  78 CALM      29.88R
WORTHINGTON    PTCLDY    66  61  82 W7        29.90R
JACKSON        PTCLDY    68  61  77 NW5       29.88S
TRACY          CLOUDY    71  64  78 NW6       29.89R
SLAYTON        CLEAR     66  63  87 CALM      29.91R
$$
MNZ065>067-074>077-082>085-091>093-300400-
   South Central Minnesota

CITY           SKY/WX    TMP DP  RH WIND       PRES   REMARKS
MANKATO        CLEAR     72  63  73 NW8       29.83R
NEW ULM        CLEAR     72  64  78 NW10      29.84R
ST JAMES       CLEAR     72  64  78 W8        29.86R
FAIRMONT       CLEAR     70  59  68 W7        29.85S
GLENCOE        CLEAR     72  67  85 NW6       29.83R
FARIBAULT      MOCLDY    66  57  72 SE3       29.83R
OWATONNA       PTCLDY    68  57  68 SE6       29.84R
WASECA         PTCLDY    66  63  88 SE3       29.85R
ALBERT LEA     CLEAR     72  63  73 N3        29.84R
$$
MNZ078>079-086>088-094>096-300400-
   Southeast Minnesota

CITY           SKY/WX    TMP DP  RH WIND       PRES   REMARKS
ROCHESTER      CLOUDY    61  59  93 SW7       29.84R
RED WING       PTCLDY    63  61  94 CALM      29.81R
STANTON        MOCLDY    64  59  82 CALM      29.82R
DODGE CENTER   MOCLDY    63  57  82 S5        29.84S
WINONA         CLOUDY    61  59  94 CALM      29.81R
AUSTIN         PTCLDY    64  57  77 CALM      29.84F
PRESTON        CLOUDY    60  58  91 CALM      29.84S
$$
ABBREVIATIONS USED IN REMARKS
   TC - TEMPERATURES IN CELSIUS
  WCI - WIND CHILL INDEX
   HX - HEAT INDEX
  VSB - VISIBILITY
$$



USA.gov is the U.S. government's official web portal to all federal, state and local government web resources and services.